| time (UTC) | temp F | wind direction | speed MPH | gust MPH | rain 1hr in | rain 24hr in | rain mn in | humidity % | barometer mb |
| 20260504040504 | 61 | 0 | 4.0 | 9.0 | 0.00 | 0.00 | 0.00 | 32 | 1002.4 |
| 20260504040004 | 61 | 0 | 3.0 | 10.0 | 0.00 | 0.00 | 0.00 | 33 | 1002.4 |
| 20260504035504 | 61 | 0 | 3.0 | 10.0 | 0.00 | 0.00 | 0.00 | 33 | 1002.5 |
| 20260504035005 | 61 | 0 | 3.0 | 10.0 | 0.00 | 0.00 | 0.00 | 32 | 1002.4 |
| 20260504034504 | 61 | 0 | 3.0 | 8.0 | 0.00 | 0.00 | 0.00 | 33 | 1002.4 |
| 20260504034004 | 61 | 0 | 6.0 | 12.0 | 0.00 | 0.00 | 0.00 | 32 | 1002.5 |
| 20260504033004 | 61 | 0 | 3.0 | 12.0 | 0.00 | 0.00 | 0.00 | 35 | 1002.5 |
| 20260504032505 | 61 | 0 | 3.0 | 9.0 | 0.00 | 0.00 | 0.00 | 36 | 1002.5 |
| 20260504032005 | 61 | 0 | 1.0 | 3.0 | 0.00 | 0.00 | 0.00 | 35 | 1002.5 |
| 20260504031505 | 61 | 0 | 1.0 | 3.0 | 0.00 | 0.00 | 0.00 | 36 | 1002.5 |
| 20260504030004 | 61 | 0 | 0.0 | 3.0 | 0.00 | 0.00 | 0.00 | 36 | 1002.6 |
| 20260504025504 | 61 | 0 | 0.0 | 1.0 | 0.00 | 0.00 | 0.00 | 36 | 1002.7 |
| 20260504024504 | 62 | 0 | 0.0 | 1.0 | 0.00 | 0.00 | 0.00 | 36 | 1002.5 |
| 20260504024004 | 62 | 0 | 0.0 | 2.0 | 0.00 | 0.00 | 0.00 | 35 | 1002.5 |
| 20260504023504 | 62 | 0 | 0.0 | 3.0 | 0.00 | 0.00 | 0.00 | 34 | 1002.6 |
| 20260504023005 | 63 | 0 | 0.0 | 1.0 | 0.00 | 0.00 | 0.00 | 31 | 1002.6 |
| 20260504021505 | 63 | 0 | 0.0 | 0.0 | 0.00 | 0.00 | 0.00 | 29 | 1002.5 |
| 20260504021004 | 64 | 0 | 0.0 | 0.0 | 0.00 | 0.00 | 0.00 | 29 | 1002.5 |
| 20260504020505 | 64 | 0 | 0.0 | 0.0 | 0.00 | 0.00 | 0.00 | 29 | 1002.5 |
| 20260504020004 | 64 | 0 | 0.0 | 0.0 | 0.00 | 0.00 | 0.00 | 30 | 1002.5 |
| 20260504015504 | 64 | 0 | 0.0 | 0.0 | 0.00 | 0.00 | 0.00 | 28 | 1002.4 |
| 20260504015005 | 64 | 0 | 0.0 | 1.0 | 0.00 | 0.00 | 0.00 | 28 | 1002.5 |
| 20260504014504 | 65 | 0 | 0.0 | 1.0 | 0.00 | 0.00 | 0.00 | 27 | 1002.4 |
| 20260504014005 | 65 | 0 | 0.0 | 0.0 | 0.00 | 0.00 | 0.00 | 27 | 1002.4 |
| 20260504013504 | 65 | 0 | 0.0 | 1.0 | 0.00 | 0.00 | 0.00 | 27 | 1002.3 |
| 20260504013004 | 65 | 0 | 0.0 | 1.0 | 0.00 | 0.00 | 0.00 | 27 | 1002.4 |
| 20260504012504 | 65 | 0 | 1.0 | 2.0 | 0.00 | 0.00 | 0.00 | 27 | 1002.3 |
| 20260504012004 | 66 | 0 | 0.0 | 1.0 | 0.00 | 0.00 | 0.00 | 27 | 1002.3 |
| 20260504011504 | 66 | 0 | 2.0 | 3.0 | 0.00 | 0.00 | 0.00 | 27 | 1002.4 |
| 20260504010504 | 66 | 0 | 1.0 | 3.0 | 0.00 | 0.00 | 0.00 | 27 | 1002.5 |
| 20260504005504 | 66 | 0 | 2.0 | 5.0 | 0.00 | 0.00 | 0.00 | 26 | 1002.5 |
| 20260504005004 | 66 | 0 | 2.0 | 5.0 | 0.00 | 0.00 | 0.00 | 26 | 1002.4 |
| 20260504004503 | 66 | 0 | 1.0 | 6.0 | 0.00 | 0.00 | 0.00 | 26 | 1002.6 |
| 20260504004005 | 67 | 0 | 2.0 | 5.0 | 0.00 | 0.00 | 0.00 | 26 | 1002.6 |
| 20260504003504 | 67 | 0 | 3.0 | 6.0 | 0.00 | 0.00 | 0.00 | 26 | 1002.7 |
| 20260504003004 | 67 | 0 | 4.0 | 10.0 | 0.00 | 0.00 | 0.00 | 25 | 1002.7 |
| 20260504002504 | 67 | 0 | 3.0 | 8.0 | 0.00 | 0.00 | 0.00 | 25 | 1002.6 |
| 20260504001504 | 67 | 0 | 3.0 | 6.0 | 0.00 | 0.00 | 0.00 | 24 | 1002.7 |
| 20260504000504 | 67 | 0 | 1.0 | 3.0 | 0.00 | 0.00 | 0.00 | 24 | 1002.7 |
| 20260504000004 | 67 | 0 | 2.0 | 16.0 | 0.00 | 0.00 | 0.00 | 24 | 1002.7 |
| 20260503235504 | 67 | 0 | 4.0 | 12.0 | 0.00 | 0.00 | 0.00 | 24 | 1002.7 |
| 20260503235004 | 67 | 0 | 5.0 | 12.0 | 0.00 | 0.00 | 0.00 | 24 | 1002.3 |
| 20260503234004 | 68 | 0 | 3.0 | 12.0 | 0.00 | 0.00 | 0.00 | 25 | 1001.9 |
| 20260503233504 | 68 | 0 | 3.0 | 14.0 | 0.00 | 0.00 | 0.00 | 25 | 1002.0 |
| 20260503231504 | 69 | 0 | 5.0 | 14.0 | 0.00 | 0.00 | 0.00 | 26 | 1002.0 |
| 20260503231005 | 69 | 0 | 5.0 | 16.0 | 0.00 | 0.00 | 0.00 | 23 | 1002.4 |
| 20260503230504 | 70 | 0 | 6.0 | 14.0 | 0.00 | 0.00 | 0.00 | 21 | 1002.4 |
| 20260503230004 | 70 | 0 | 3.0 | 12.0 | 0.00 | 0.00 | 0.00 | 21 | 1001.9 |
| 20260503225503 | 70 | 0 | 1.0 | 5.0 | 0.00 | 0.00 | 0.00 | 21 | 1002.0 |
| 20260503225004 | 70 | 0 | 2.0 | 6.0 | 0.00 | 0.00 | 0.00 | 21 | 1002.1 |
| 20260503224004 | 71 | 0 | 1.0 | 10.0 | 0.00 | 0.00 | 0.00 | 20 | 1002.1 |
| 20260503223504 | 71 | 0 | 4.0 | 12.0 | 0.00 | 0.00 | 0.00 | 20 | 1002.1 |
| 20260503222504 | 71 | 0 | 5.0 | 9.0 | 0.00 | 0.00 | 0.00 | 20 | 1002.2 |
| 20260503222004 | 72 | 0 | 2.0 | 3.0 | 0.00 | 0.00 | 0.00 | 19 | 1002.3 |
| 20260503221504 | 72 | 0 | 2.0 | 6.0 | 0.00 | 0.00 | 0.00 | 19 | 1002.2 |
| 20260503221004 | 72 | 0 | 3.0 | 9.0 | 0.00 | 0.00 | 0.00 | 18 | 1002.3 |
| 20260503220004 | 72 | 0 | 6.0 | 12.0 | 0.00 | 0.00 | 0.00 | 19 | 1002.3 |
| 20260503214504 | 73 | 0 | 6.0 | 12.0 | 0.00 | 0.00 | 0.00 | 18 | 1002.6 |
| 20260503213504 | 74 | 0 | 5.0 | 12.0 | 0.00 | 0.00 | 0.00 | 16 | 1002.7 |
| 20260503213004 | 74 | 0 | 1.0 | 3.0 | 0.00 | 0.00 | 0.00 | 17 | 1002.7 |
| 20260503212503 | 74 | 0 | 3.0 | 6.0 | 0.00 | 0.00 | 0.00 | 16 | 1003.0 |
| 20260503212005 | 74 | 0 | 1.0 | 3.0 | 0.00 | 0.00 | 0.00 | 16 | 1002.8 |
| 20260503211504 | 74 | 0 | 1.0 | 5.0 | 0.00 | 0.00 | 0.00 | 16 | 1003.0 |
| 20260503211004 | 74 | 0 | 3.0 | 9.0 | 0.00 | 0.00 | 0.00 | 17 | 1003.0 |
| 20260503210504 | 74 | 0 | 4.0 | 9.0 | 0.00 | 0.00 | 0.00 | 16 | 1002.9 |
| 20260503210005 | 75 | 3 | 2.0 | 5.0 | 0.00 | 0.00 | 0.00 | 16 | 1003.1 |
| 20260503205504 | 75 | 0 | 2.0 | 3.0 | 0.00 | 0.00 | 0.00 | 15 | 1003.2 |
| 20260503205004 | 75 | 0 | 0.0 | 3.0 | 0.00 | 0.00 | 0.00 | 16 | 1003.2 |
| 20260503204504 | 76 | 0 | 1.0 | 3.0 | 0.00 | 0.00 | 0.00 | 15 | 1003.3 |
| 20260503203504 | 76 | 0 | 1.0 | 6.0 | 0.00 | 0.00 | 0.00 | 17 | 1003.5 |
| 20260503203004 | 75 | 0 | 3.0 | 8.0 | 0.00 | 0.00 | 0.00 | 17 | 1003.6 |
| 20260503202504 | 75 | 268 | 2.0 | 7.0 | 0.00 | 0.00 | 0.00 | 15 | 1003.7 |
| 20260503202004 | 75 | 337 | 2.0 | 5.0 | 0.00 | 0.00 | 0.00 | 17 | 1003.8 |
| 20260503201004 | 75 | 0 | 1.0 | 3.0 | 0.00 | 0.00 | 0.00 | 17 | 1003.9 |
| 20260503200503 | 75 | 0 | 1.0 | 8.0 | 0.00 | 0.00 | 0.00 | 16 | 1004.0 |
| 20260503195504 | 75 | 42 | 2.0 | 3.0 | 0.00 | 0.00 | 0.00 | 19 | 1004.2 |
| 20260503194504 | 74 | 0 | 1.0 | 3.0 | 0.00 | 0.00 | 0.00 | 18 | 1004.2 |
| 20260503193504 | 75 | 0 | 2.0 | 3.0 | 0.00 | 0.00 | 0.00 | 17 | 1004.4 |
| 20260503193004 | 75 | 0 | 3.0 | 12.0 | 0.00 | 0.00 | 0.00 | 17 | 1004.3 |
| 20260503192504 | 76 | 0 | 5.0 | 12.0 | 0.00 | 0.00 | 0.00 | 16 | 1004.5 |
| 20260503192004 | 76 | 0 | 2.0 | 6.0 | 0.00 | 0.00 | 0.00 | 16 | 1004.6 |
| 20260503191504 | 77 | 0 | 2.0 | 8.0 | 0.00 | 0.00 | 0.00 | 16 | 1004.7 |
| 20260503191004 | 77 | 0 | 2.0 | 3.0 | 0.00 | 0.00 | 0.00 | 18 | 1004.7 |
| 20260503190004 | 76 | 0 | 3.0 | 6.0 | 0.00 | 0.00 | 0.00 | 17 | 1004.9 |
| 20260503185504 | 76 | 0 | 5.0 | 10.0 | 0.00 | 0.00 | 0.00 | 16 | 1005.1 |
| 20260503185004 | 76 | 143 | 1.0 | 3.0 | 0.00 | 0.00 | 0.00 | 17 | 1005.2 |
| 20260503184503 | 75 | 324 | 1.0 | 3.0 | 0.00 | 0.00 | 0.00 | 17 | 1005.2 |
| 20260503184004 | 75 | 0 | 1.0 | 3.0 | 0.00 | 0.00 | 0.00 | 17 | 1005.2 |
| 20260503183503 | 75 | 0 | 2.0 | 5.0 | 0.00 | 0.00 | 0.00 | 18 | 1005.4 |
| 20260503183004 | 74 | 0 | 2.0 | 6.0 | 0.00 | 0.00 | 0.00 | 17 | 1005.5 |
| 20260503182505 | 74 | 0 | 2.0 | 3.0 | 0.00 | 0.00 | 0.00 | 18 | 1005.6 |
| 20260503182005 | 74 | 0 | 2.0 | 6.0 | 0.00 | 0.00 | 0.00 | 19 | 1005.7 |
| 20260503181505 | 73 | 0 | 3.0 | 6.0 | 0.00 | 0.00 | 0.00 | 20 | 1005.8 |
| 20260503181004 | 72 | 0 | 2.0 | 6.0 | 0.00 | 0.00 | 0.00 | 20 | 1006.0 |
| 20260503180504 | 72 | 0 | 1.0 | 3.0 | 0.00 | 0.00 | 0.00 | 21 | 1006.2 |
| 20260503180004 | 71 | 0 | 1.0 | 3.0 | 0.00 | 0.00 | 0.00 | 21 | 1006.3 |
| 20260503175504 | 70 | 0 | 1.0 | 3.0 | 0.00 | 0.00 | 0.00 | 21 | 1006.5 |
| 20260503175004 | 69 | 0 | 2.0 | 3.0 | 0.00 | 0.00 | 0.00 | 23 | 1006.5 |
| 20260503174004 | 69 | 0 | 2.0 | 3.0 | 0.00 | 0.00 | 0.00 | 21 | 1006.8 |
| 20260503173504 | 68 | 0 | 1.0 | 3.0 | 0.00 | 0.00 | 0.00 | 24 | 1006.8 |
| 20260503172004 | 67 | 0 | 0.0 | 3.0 | 0.00 | 0.00 | 0.00 | 26 | 1007.1 |
| 20260503171504 | 67 | 0 | 1.0 | 3.0 | 0.00 | 0.00 | 0.00 | 25 | 1007.3 |
| 20260503171004 | 66 | 0 | 1.0 | 3.0 | 0.00 | 0.00 | 0.00 | 25 | 1007.3 |
| 20260503170504 | 66 | 0 | 2.0 | 5.0 | 0.00 | 0.00 | 0.00 | 25 | 1007.5 |
| 20260503151004 | 55 | 0 | 1.0 | 3.0 | 0.00 | 0.00 | 0.00 | 41 | 1008.5 |
| 20260503150504 | 54 | 0 | 0.0 | 2.0 | 0.00 | 0.00 | 0.00 | 41 | 1008.6 |
| 20260503130504 | 44 | 0 | 0.0 | 2.0 | 0.00 | 0.00 | 0.00 | 51 | 1009.0 |
| 20260503090505 | 44 | 0 | 0.0 | 0.0 | 0.00 | 0.00 | 0.00 | 44 | 1008.7 |
| 20260503081504 | 45 | 0 | 0.0 | 0.0 | 0.00 | 0.00 | 0.00 | 43 | 1008.7 |
| 20260503081005 | 46 | 0 | 0.0 | 1.0 | 0.00 | 0.00 | 0.00 | 43 | 1008.6 |
| 20260503080505 | 46 | 0 | 0.0 | 0.0 | 0.00 | 0.00 | 0.00 | 43 | 1008.7 |
| 20260503072504 | 48 | 0 | 0.0 | 0.0 | 0.00 | 0.00 | 0.00 | 39 | 1009.2 |
| 20260503072005 | 48 | 0 | 0.0 | 0.0 | 0.00 | 0.00 | 0.00 | 39 | 1009.1 |
| 20260503071504 | 48 | 0 | 0.0 | 0.0 | 0.00 | 0.00 | 0.00 | 38 | 1009.2 |
| 20260503071004 | 48 | 0 | 0.0 | 0.0 | 0.00 | 0.00 | 0.00 | 37 | 1009.2 |
| 20260503070504 | 49 | 0 | 0.0 | 0.0 | 0.00 | 0.00 | 0.00 | 37 | 1009.2 |
| 20260503055005 | 53 | 0 | 0.0 | 0.0 | 0.00 | 0.00 | 0.00 | 30 | 1009.3 |
| 20260503054504 | 53 | 0 | 1.0 | 3.0 | 0.00 | 0.00 | 0.00 | 32 | 1009.3 |
| 20260503053504 | 53 | 0 | 1.0 | 1.0 | 0.00 | 0.00 | 0.00 | 29 | 1009.3 |
| 20260503053005 | 54 | 0 | 0.0 | 3.0 | 0.00 | 0.00 | 0.00 | 28 | 1009.3 |
| 20260503052504 | 54 | 0 | 0.0 | 3.0 | 0.00 | 0.00 | 0.00 | 28 | 1009.1 |
| 20260503052004 | 54 | 0 | 1.0 | 2.0 | 0.00 | 0.00 | 0.00 | 30 | 1009.2 |
| 20260503051504 | 55 | 0 | 0.0 | 1.0 | 0.00 | 0.00 | 0.00 | 32 | 1009.3 |
| 20260503050504 | 55 | 0 | 0.0 | 1.0 | 0.00 | 0.00 | 0.00 | 34 | 1009.3 |
| 20260503050005 | 56 | 0 | 0.0 | 0.0 | 0.00 | 0.00 | 0.00 | 35 | 1009.3 |
| 20260503045504 | 56 | 0 | 0.0 | 0.0 | 0.00 | 0.00 | 0.00 | 33 | 1009.3 |
| 20260503044504 | 57 | 0 | 0.0 | 0.0 | 0.00 | 0.00 | 0.00 | 31 | 1009.5 |
| 20260503044004 | 58 | 0 | 0.0 | 0.0 | 0.00 | 0.00 | 0.00 | 30 | 1009.5 |
| 20260503043504 | 58 | 0 | 0.0 | 0.0 | 0.00 | 0.00 | 0.00 | 29 | 1009.5 |
| 20260503042504 | 59 | 0 | 0.0 | 2.0 | 0.00 | 0.00 | 0.00 | 28 | 1009.6 |
| 20260503042005 | 59 | 0 | 0.0 | 1.0 | 0.00 | 0.00 | 0.00 | 25 | 1009.7 |
| 20260503041504 | 60 | 0 | 0.0 | 2.0 | 0.00 | 0.00 | 0.00 | 25 | 1009.7 |
| 20260503041004 | 60 | 0 | 0.0 | 1.0 | 0.00 | 0.00 | 0.00 | 25 | 1009.7 |